Погода в Усть-Лопъю

Россия / Республика Коми     60°13′32″N   49°38′23″E
темп.,
°C
ветер,
м/с
пор.,
м/с
влажн.,
%
обл.,
%
осадки,
мм/ч
давл.,
гПа
погр.,
м
9 декабря, чт
чт900:00−11юв129886 0.1 102342
03:00−11ю119898 0.3 102313
06:00−9зюз0197100 0.3 102331
09:00−8зсз1297100 1.3 1023108
12:00−8сз1396100 1.3 1023167
15:00−9сз1496100 2.6 1023197
18:00−9сз2496100 0.8 1023231
21:00−14зсз269863 0.8 1024119
10 декабря, пт
пт1000:00−24з1110076 0.0 102715
03:00−26з1110096 0.0 102812
06:00−27зюз1110097 0.0 10309
09:00−28зюз1110080 0.0 103310
12:00−19зсз259827 0.0 1034130
15:00−24з1110049 0.0 10369
18:00−26з1110071 0.0 10399
21:00−27зюз1110084 0.0 10409
11 декабря, сб
сб1100:00−28юз1110091 0.0 10429
03:00−27юз1110097 0.0 10439
06:00−27юз1110099 0.0 10439
09:00−26юз1110098 0.0 104314
12:00−16зюз129864 0.0 104365
15:00−20ююз1110072 0.0 10449
18:00−22ююз1110068 0.0 104414
21:00−21ююз2310054 0.0 104350
12 декабря, вс
вс1200:00−19ююз26967 0.0 104394
03:00−19ююз2695100 0.0 104385
06:00−16юз2109042 0.0 1042163
09:00−16ююз2991100 0.0 1042163
12:00−12юз31187100 0.0 1041283
15:00−14ююз289242 0.0 1040111
18:00−15ююз289327 0.0 1040122
21:00−16ююз279351 0.0 1039115
13 декабря, пн
пн1300:00−15ююз3109262 0.0 1038173
03:00−16ююз289499 0.0 1037134
06:00−14ююз2892100 0.0 1036162
09:00−11ююз2791100 0.0 1035173
12:00−8ююз3790100 0.0 1034212
15:00−8ююз2791100 0.0 1034201
18:00−7ююз3893100 0.1 1032286
21:00−7ююз3990100 0.1 1031279